Epoch 2007 June 29.0 TT = JDT 2454280.5
T 2007 July 6.62611 TT MPCW
q 2.4998210 (2000.0) P Q
n 0.11132111 Peri. 312.17869 +0.95165013 +0.30538172
a 4.2797430 Node 30.08471 -0.25867035 +0.85499559
e 0.4158946 Incl. 3.80060 -0.16568549 +0.41919512
P 8.85
From 126 observations 2007 Sept. 10-2016 July 17, mean residual 0".6.